Regional Weather Roundup
Issued by NWS

Home | Current Version | Previous Version | Graphics & Text | Print | Product List | Glossary Off
Versions: 1 2 3 4 5 6 7 8 9 10 11 12 13 14 15 16 17 18 19 20 21 22 23 24 25 26 27 28 29 30 31 32 33 34 35 36 37 38 39 40 41 42 43 44 45 46 47 48 49 50

000
ASUS43 KLSX 241859
RWRMO

WEATHER SUMMARY FOR MISSOURI
NATIONAL WEATHER SERVICE SPRINGFIELD MO
100 PM CST MON NOV 24 2014

NOTE: "FAIR" INDICATES FEW OR NO CLOUDS BELOW 12,000 FEET WITH NO
       SIGNIFICANT WEATHER AND/OR OBSTRUCTIONS TO VISIBILITY.
       CURRENT SKY AND/OR WEATHER CONDITIONS ARE NOT AVAILABLE FOR
       CHILLICOTHE AND FARMINGTON.

MOZ001>031-035>038-043-044-053-054-242000-
...NORTHERN AND WESTERN MISSOURI...

CITY           SKY/WX    TMP DP  RH WIND       PRES   REMARKS
KANSAS CTY INT CLOUDY    36  25  64 W16       29.78R WCI  26
KANSAS C DTWN  CLOUDY    38  24  57 W17G24    29.80R WCI  28
LEE`S SUMMIT   CLOUDY    37  24  59 W10       29.79R WCI  30
ST JOSEPH      CLOUDY    36  24  62 NW15      29.78R WCI  27
CHILLICOTHE      N/A     34  22  61 NW13G25   29.75R WCI  25
KIRKSVILLE     CLOUDY    32  24  72 W10G23    29.68R WCI  24

$$
MOZ066>068-077>081-088>096-101>105-242000-
...SOUTHWEST MISSOURI...

CITY           SKY/WX    TMP DP  RH WIND       PRES   REMARKS
SPRINGFIELD    MOSUNNY   47  27  45 W26G35    29.80R
JOPLIN         MOSUNNY   47  28  47 W18G29    29.85R

$$
MOZ032>034-039>042-045>050-055>058-069>072-242000-
...CENTRAL MISSOURI...

CITY           SKY/WX    TMP DP  RH WIND       PRES   REMARKS
COLUMBIA       CLOUDY    37  26  64 W18G28    29.74R WCI  27
JEFFERSON CITY CLOUDY    39  25  57 W17G26    29.77R WCI  30
ROLLA          MOSUNNY   40  25  55 W18       29.73R
SEDALIA        CLOUDY    40  27  59 W15       29.77R
WHITEMAN AFB   CLOUDY    39  25  58 W17       29.77R WCI  29
WARRENSBURG    CLOUDY    37  27  65 W13G22    29.79R WCI  29
OSAGE BEACH    CLOUDY    43  25  49 W18G26    29.77R

$$
MOZ051-052-059>065-242000-
...EAST CENTRAL MISSOURI...

CITY           SKY/WX    TMP DP  RH WIND       PRES   REMARKS
ST LOUIS INTL  CLOUDY    40  28  62 W23G37    29.72R WCI  30
SPIRIT OF STL  CLOUDY    39  28  64 W21G31    29.72R WCI  29
ST CHARLES     CLOUDY    39  28  64 W22G30    29.71R WCI  29

$$
MOZ072>076-082>087-097>100-106>115-242000-
...SOUTH CENTRAL AND SOUTHEAST MISSOURI...

CITY           SKY/WX    TMP DP  RH WIND       PRES   REMARKS
CAPE GIRARDEAU SUNNY     50  35  56 W20G26    29.76R
FARMINGTON     PTSUNNY   46  27  46 SW15G24   29.75R
POPLAR BLUFF   SUNNY     52  27  38 W24G31    29.77F
WEST PLAINS    MOSUNNY   49  26  41 W20G32    29.78S

$$



USA.gov is the U.S. government's official web portal to all federal, state and local government web resources and services.